Torna al catalogo

STARLINK-36818

AttivoComunicazioniSSO
NORAD 67879·PAYLOAD·🇺🇸 United States

Lanciato Feb 21, 2026 da Vandenberg Space Force Base

Loading…

Prossimi Passaggi (prossime 24 ore)

TLE

AggiornatoSource: CelesTrak SupGP

Epoca: Sep 14, 2026, 21:33 UTC

1 67879C 26035A   26257.89840278 -.00071582  00000+0 -22223-2 0  2575
2 67879  97.2847 189.7484 0001722  91.2718 116.8311 15.33472206    12

Traccia STARLINK-36818 in tempo reale con AllMySat

Download on the App Store